Dịch vụ đang nâng cấp, xin cảm ơn bạn!
<< > ... 138 139 140 141 142 ... 500 > >> Show 2781 - 2800 of 10000
STT Tên file Thể loại Kích thước Ngày
2781 Xem phim Re:Stage! Dream Days♪ - Tập 2.mp4 mp4 100.06 MB 2019-08-01
2782 Xem phim Tái Xuất - Tập full | Re: Born (2016).mp4 mp4 470.76 MB 2019-08-01
2783 Xem phim Re:Stage! Dream Days♪ - Tập 1.mp4 mp4 227.61 MB 2019-08-01
2784 Xem phim Tái Xuất - Tập full | Re: Born (2016).mp4 mp4 501.76 MB 2019-08-01
2785 Xem phim Tokyo Ghoul:re 2nd Season - Tập 12.mp4 mp4 163.76 MB 2019-08-01
2786 Xem phim Tokyo Ghoul:re 2nd Season - Tập 11.mp4 mp4 154.09 MB 2019-08-01
2787 Xem phim Tokyo Ghoul:re 2nd Season - Tập 9.mp4 mp4 151.61 MB 2019-08-01
2788 Xem phim Tokyo Ghoul:re 2nd Season - Tập 10.mp4 mp4 196.56 MB 2019-08-01
2789 Xem phim Tokyo Ghoul:re 2nd Season - Tập 8.mp4 mp4 200.40 MB 2019-08-01
2790 Xem phim Tokyo Ghoul:re 2nd Season - Tập 6.mp4 mp4 230.75 MB 2019-08-01
2791 Xem phim Tokyo Ghoul:re 2nd Season - Tập 7.mp4 mp4 199.69 MB 2019-08-01
2792 Xem phim Tokyo Ghoul:re 2nd Season - Tập 4.mp4 mp4 155.98 MB 2019-08-01
2793 Xem phim Tokyo Ghoul:re 2nd Season - Tập 5.mp4 mp4 151.88 MB 2019-08-01
2794 Xem phim Tokyo Ghoul:re 2nd Season - Tập 1.mp4 mp4 30.00 MB 2019-08-01
2795 Xem phim Tokyo Ghoul:re 2nd Season - Tập 2.mp4 mp4 122.98 MB 2019-08-01
2796 Xem phim Tokyo Ghoul:re 2nd Season - Tập 3.mp4 mp4 36.67 MB 2019-08-01
2797 [CFS] Tokyo Ghoul-re Season 2 Ep 1 (Preair).mp4 mp4 325.43 MB 2018-10-09
2798 [CFS] Tokyo Ghoul Re - 05 (MX 1280x720 x264 AAC).mp4 mp4 295.55 MB 2018-05-04
2799 [CFS] Tokyo Ghoul Re - 03 (MX 1280x720 x264 AAC).mp4 mp4 307.00 MB 2018-04-19
2800 [CFS] Tokyo Ghoul Re - 02 (MX 1280x720 x264 AAC).mp4 mp4 269.02 MB 2018-04-12
Hỗ trợ
Chat ngay